Time,TemperatureF,DewpointF,PressureIn,WindDirection,WindDirectionDegrees,WindSpeedMPH,WindSpeedGustMPH,Humidity,HourlyPrecipIn,Conditions,Clouds,dailyrainin,SoftwareType,DateUTC
2013-06-04 00:02:00,48.0,36.0,-100.00,South,169,5.0,6.0,62,0.00,,,-99.99,,2013-06-04 06:02:00,
2013-06-04 00:22:00,48.0,35.0,-100.00,SSE,152,6.0,7.0,62,0.00,,,-99.99,,2013-06-04 06:22:00,
2013-06-04 00:32:00,48.0,35.0,-100.00,SSE,152,6.0,7.0,62,0.00,,,-99.99,,2013-06-04 06:32:00,
2013-06-04 00:42:00,49.0,35.0,-100.00,SSE,150,4.0,5.0,58,0.00,,,-99.99,,2013-06-04 06:42:00,
2013-06-04 00:52:00,47.0,36.0,-100.00,South,181,3.0,4.0,63,0.00,,,-99.99,,2013-06-04 06:52:00,
2013-06-04 01:02:00,47.0,36.0,-100.00,South,181,3.0,4.0,63,0.00,,,-99.99,,2013-06-04 07:02:00,
2013-06-04 01:12:00,46.0,33.0,-100.00,NNW,344,10.0,13.0,59,0.00,,,-99.99,,2013-06-04 07:12:00,
2013-06-04 01:22:00,52.0,30.0,-100.00,SW,236,6.0,8.0,42,0.00,,,-99.99,,2013-06-04 07:22:00,
2013-06-04 01:32:00,52.0,30.0,-100.00,SW,236,6.0,8.0,42,0.00,,,-99.99,,2013-06-04 07:32:00,
2013-06-04 01:42:00,52.0,30.0,-100.00,SW,236,6.0,8.0,42,0.00,,,-99.99,,2013-06-04 07:42:00,
2013-06-04 01:52:00,50.0,30.0,-100.00,SSW,195,6.0,8.0,45,0.00,,,-99.99,,2013-06-04 07:52:00,
2013-06-04 02:02:00,50.0,30.0,-100.00,SSW,195,6.0,8.0,45,0.00,,,-99.99,,2013-06-04 08:02:00,
2013-06-04 02:12:00,50.0,30.0,-100.00,SSW,195,6.0,8.0,45,0.00,,,-99.99,,2013-06-04 08:12:00,
2013-06-04 02:22:00,46.0,30.0,-100.00,WSW,239,7.0,9.0,53,0.00,,,-99.99,,2013-06-04 08:22:00,
2013-06-04 02:32:00,46.0,30.0,-100.00,WSW,239,7.0,9.0,53,0.00,,,-99.99,,2013-06-04 08:32:00,
2013-06-04 02:42:00,46.0,30.0,-100.00,WSW,239,7.0,9.0,53,0.00,,,-99.99,,2013-06-04 08:42:00,
2013-06-04 02:52:00,46.0,30.0,-100.00,North,7,4.0,6.0,54,0.00,,,-99.99,,2013-06-04 08:52:00,
2013-06-04 03:02:00,46.0,30.0,-100.00,North,7,4.0,6.0,54,0.00,,,-99.99,,2013-06-04 09:02:00,
2013-06-04 03:12:00,44.0,32.0,-100.00,NNE,13,10.0,11.0,62,0.00,,,-99.99,,2013-06-04 09:12:00,
2013-06-04 03:22:00,46.0,33.0,-100.00,NNE,18,10.0,12.0,60,0.00,,,-99.99,,2013-06-04 09:22:00,
2013-06-04 03:32:00,46.0,33.0,-100.00,NNE,18,10.0,12.0,60,0.00,,,-99.99,,2013-06-04 09:32:00,
2013-06-04 03:42:00,45.0,33.0,-100.00,NNE,21,8.0,11.0,62,0.00,,,-99.99,,2013-06-04 09:42:00,
2013-06-04 03:53:00,45.0,33.0,-100.00,NNE,24,7.0,8.0,62,0.00,,,-99.99,,2013-06-04 09:53:00,
2013-06-04 04:02:00,45.0,33.0,-100.00,NNE,24,7.0,8.0,62,0.00,,,-99.99,,2013-06-04 10:02:00,
2013-06-04 04:12:00,45.0,33.0,-100.00,NNE,14,9.0,10.0,62,0.00,,,-99.99,,2013-06-04 10:12:00,
2013-06-04 04:22:00,43.0,33.0,-100.00,North,11,8.0,9.0,67,0.00,,,-99.99,,2013-06-04 10:22:00,
2013-06-04 04:32:00,43.0,33.0,-100.00,North,11,8.0,9.0,67,0.00,,,-99.99,,2013-06-04 10:32:00,
2013-06-04 04:42:00,43.0,32.0,-100.00,North,10,9.0,11.0,63,0.00,,,-99.99,,2013-06-04 10:42:00,
2013-06-04 04:53:00,47.0,32.0,-100.00,NNE,17,11.0,14.0,56,0.00,,,-99.99,,2013-06-04 10:53:00,
2013-06-04 05:02:00,47.0,32.0,-100.00,NNE,17,11.0,14.0,56,0.00,,,-99.99,,2013-06-04 11:02:00,
2013-06-04 05:12:00,45.0,32.0,-100.00,North,1,8.0,9.0,60,0.00,,,-99.99,,2013-06-04 11:12:00,
2013-06-04 05:22:00,45.0,32.0,-100.00,North,1,8.0,9.0,60,0.00,,,-99.99,,2013-06-04 11:22:00,
2013-06-04 05:32:00,45.0,32.0,-100.00,North,1,8.0,9.0,60,0.00,,,-99.99,,2013-06-04 11:32:00,
2013-06-04 05:42:00,42.0,32.0,-100.00,North,359,9.0,10.0,67,0.00,,,-99.99,,2013-06-04 11:42:00,
2013-06-04 05:52:00,43.0,32.0,-100.00,North,8,10.0,11.0,65,0.00,,,-99.99,,2013-06-04 11:52:00,
2013-06-04 06:02:00,43.0,32.0,-100.00,North,8,10.0,11.0,65,0.00,,,-99.99,,2013-06-04 12:02:00,
2013-06-04 06:12:00,43.0,32.0,-100.00,North,8,10.0,11.0,65,0.00,,,-99.99,,2013-06-04 12:12:00,
2013-06-04 06:22:00,43.0,33.0,-100.00,NNE,17,7.0,8.0,67,0.00,,,-99.99,,2013-06-04 12:22:00,
2013-06-04 06:32:00,43.0,33.0,-100.00,NNE,17,7.0,8.0,67,0.00,,,-99.99,,2013-06-04 12:32:00,
2013-06-04 06:42:00,42.0,33.0,-100.00,North,6,6.0,6.0,69,0.00,,,-99.99,,2013-06-04 12:42:00,
2013-06-04 06:52:00,42.0,33.0,-100.00,North,6,6.0,7.0,72,0.00,,,-99.99,,2013-06-04 12:52:00,
2013-06-04 07:02:00,42.0,33.0,-100.00,North,6,6.0,7.0,72,0.00,,,-99.99,,2013-06-04 13:02:00,
2013-06-04 07:12:00,43.0,34.0,-100.00,North,8,6.0,6.0,70,0.00,,,-99.99,,2013-06-04 13:12:00,
2013-06-04 07:22:00,43.0,34.0,-100.00,North,8,6.0,6.0,70,0.00,,,-99.99,,2013-06-04 13:22:00,
2013-06-04 07:32:00,43.0,34.0,-100.00,North,8,6.0,6.0,70,0.00,,,-99.99,,2013-06-04 13:32:00,
2013-06-04 07:42:00,49.0,35.0,-100.00,NNE,17,6.0,7.0,59,0.00,,,-99.99,,2013-06-04 13:42:00,
2013-06-04 07:52:00,51.0,36.0,-100.00,NNE,16,6.0,9.0,57,0.00,,,-99.99,,2013-06-04 13:52:00,
2013-06-04 08:02:00,51.0,36.0,-100.00,NNE,16,6.0,9.0,57,0.00,,,-99.99,,2013-06-04 14:02:00,
2013-06-04 08:12:00,52.0,37.0,-100.00,NNE,28,5.0,6.0,57,0.00,,,-99.99,,2013-06-04 14:12:00,
2013-06-04 08:22:00,53.0,37.0,-100.00,NNE,25,11.0,13.0,53,0.00,,,-99.99,,2013-06-04 14:22:00,
2013-06-04 08:32:00,53.0,37.0,-100.00,NNE,25,11.0,13.0,53,0.00,,,-99.99,,2013-06-04 14:32:00,
2013-06-04 08:42:00,54.0,38.0,-100.00,NNE,24,11.0,13.0,53,0.00,,,-99.99,,2013-06-04 14:42:00,
2013-06-04 08:52:00,54.0,38.0,-100.00,NNE,24,11.0,13.0,53,0.00,,,-99.99,,2013-06-04 14:52:00,
2013-06-04 09:00:00,57.0,40.0,-100.00,NNE,30,12.0,16.0,52,0.00,,,-99.99,,2013-06-04 15:00:00,
2013-06-04 09:02:00,54.0,38.0,-100.00,NNE,24,11.0,13.0,53,0.00,,,-99.99,,2013-06-04 15:02:00,
2013-06-04 09:12:00,56.0,37.0,-100.00,NNE,28,14.0,19.0,50,0.00,,,-99.99,,2013-06-04 15:12:00,
2013-06-04 09:22:00,57.0,40.0,-100.00,NNE,30,12.0,16.0,52,0.00,,,-99.99,,2013-06-04 15:22:00,
2013-06-04 09:33:00,57.0,40.0,-100.00,NNE,30,12.0,16.0,52,0.00,,,-99.99,,2013-06-04 15:33:00,
2013-06-04 09:42:00,57.0,40.0,-100.00,NNE,30,12.0,16.0,52,0.00,,,-99.99,,2013-06-04 15:42:00,
2013-06-04 09:53:00,57.0,40.0,-100.00,NNE,30,12.0,16.0,52,0.00,,,-99.99,,2013-06-04 15:53:00,
2013-06-04 10:12:00,59.0,39.0,-100.00,NNE,27,14.0,18.0,48,0.00,,,-99.99,,2013-06-04 16:12:00,
2013-06-04 10:22:00,60.0,38.0,-100.00,NNE,25,12.0,17.0,44,0.00,,,-99.99,,2013-06-04 16:22:00,
2013-06-04 10:33:00,60.0,38.0,-100.00,NNE,25,12.0,17.0,44,0.00,,,-99.99,,2013-06-04 16:33:00,
2013-06-04 10:42:00,60.0,38.0,-100.00,NE,35,15.0,22.0,43,0.00,,,-99.99,,2013-06-04 16:42:00,
2013-06-04 10:53:00,60.0,38.0,-100.00,NE,35,15.0,22.0,43,0.00,,,-99.99,,2013-06-04 16:53:00,
2013-06-04 11:02:00,60.0,38.0,-100.00,NE,35,15.0,22.0,43,0.00,,,-99.99,,2013-06-04 17:02:00,
2013-06-04 11:12:00,62.0,38.0,-100.00,NNE,24,9.0,12.0,41,0.00,,,-99.99,,2013-06-04 17:12:00,
2013-06-04 11:23:00,63.0,36.0,-100.00,NNE,30,9.0,11.0,36,0.00,,,-99.99,,2013-06-04 17:23:00,
2013-06-04 11:32:00,63.0,36.0,-100.00,NNE,30,9.0,11.0,36,0.00,,,-99.99,,2013-06-04 17:32:00,
2013-06-04 11:42:00,63.0,35.0,-100.00,NNE,23,11.0,15.0,35,0.00,,,-99.99,,2013-06-04 17:42:00,
2013-06-04 11:52:00,63.0,35.0,-100.00,NNE,23,11.0,15.0,35,0.00,,,-99.99,,2013-06-04 17:52:00,
2013-06-04 12:02:00,63.0,35.0,-100.00,NNE,23,11.0,15.0,35,0.00,,,-99.99,,2013-06-04 18:02:00,
2013-06-04 12:12:00,64.0,29.0,-100.00,NE,45,13.0,16.0,27,0.00,,,-99.99,,2013-06-04 18:12:00,
2013-06-04 12:22:00,65.0,32.0,-100.00,ENE,58,12.0,15.0,29,0.00,,,-99.99,,2013-06-04 18:22:00,
2013-06-04 12:32:00,65.0,32.0,-100.00,ENE,58,12.0,15.0,29,0.00,,,-99.99,,2013-06-04 18:32:00,
2013-06-04 12:42:00,66.0,34.0,-100.00,NNE,23,6.0,11.0,30,0.00,,,-99.99,,2013-06-04 18:42:00,
2013-06-04 12:52:00,67.0,32.0,-100.00,ENE,66,9.0,12.0,27,0.00,,,-99.99,,2013-06-04 18:52:00,
2013-06-04 13:02:00,67.0,32.0,-100.00,ENE,66,9.0,12.0,27,0.00,,,-99.99,,2013-06-04 19:02:00,
2013-06-04 13:12:00,65.0,29.0,-100.00,East,90,9.0,11.0,25,0.00,,,-99.99,,2013-06-04 19:12:00,
2013-06-04 13:22:00,66.0,31.0,-100.00,ESE,123,4.0,8.0,26,0.00,,,-99.99,,2013-06-04 19:22:00,
2013-06-04 13:32:00,66.0,31.0,-100.00,ESE,123,4.0,8.0,26,0.00,,,-99.99,,2013-06-04 19:32:00,
2013-06-04 13:42:00,67.0,29.0,-100.00,East,93,3.0,7.0,24,0.00,,,-99.99,,2013-06-04 19:42:00,
2013-06-04 13:52:00,68.0,30.0,-100.00,ENE,71,3.0,4.0,24,0.00,,,-99.99,,2013-06-04 19:52:00,
2013-06-04 14:02:00,68.0,30.0,-100.00,ENE,71,3.0,4.0,24,0.00,,,-99.99,,2013-06-04 20:02:00,
2013-06-04 14:12:00,68.0,30.0,-100.00,ENE,71,3.0,4.0,24,0.00,,,-99.99,,2013-06-04 20:12:00,
2013-06-04 14:22:00,68.0,29.0,-100.00,NE,51,11.0,13.0,23,0.00,,,-99.99,,2013-06-04 20:22:00,
2013-06-04 14:32:00,68.0,29.0,-100.00,NE,51,11.0,13.0,23,0.00,,,-99.99,,2013-06-04 20:32:00,
2013-06-04 14:42:00,70.0,31.0,-100.00,North,349,4.0,9.0,23,0.00,,,-99.99,,2013-06-04 20:42:00,
2013-06-04 14:53:00,70.0,31.0,-100.00,North,349,4.0,9.0,23,0.00,,,-99.99,,2013-06-04 20:53:00,
2013-06-04 15:02:00,70.0,31.0,-100.00,North,349,4.0,9.0,23,0.00,,,-99.99,,2013-06-04 21:02:00,
2013-06-04 15:12:00,68.0,32.0,-100.00,ESE,102,4.0,8.0,26,0.00,,,-99.99,,2013-06-04 21:12:00,
2013-06-04 15:22:00,68.0,32.0,-100.00,ESE,102,4.0,8.0,26,0.00,,,-99.99,,2013-06-04 21:22:00,
2013-06-04 15:33:00,68.0,32.0,-100.00,ESE,102,4.0,8.0,26,0.00,,,-99.99,,2013-06-04 21:33:00,
2013-06-04 15:42:00,69.0,34.0,-100.00,ESE,123,9.0,12.0,27,0.00,,,-99.99,,2013-06-04 21:42:00,
2013-06-04 15:53:00,69.0,34.0,-100.00,SSE,162,11.0,14.0,28,0.00,,,-99.99,,2013-06-04 21:53:00,
2013-06-04 16:02:00,69.0,34.0,-100.00,SSE,162,11.0,14.0,28,0.00,,,-99.99,,2013-06-04 22:02:00,
2013-06-04 16:12:00,70.0,32.0,-100.00,SSE,155,6.0,9.0,25,0.00,,,-99.99,,2013-06-04 22:12:00,
2013-06-04 16:22:00,70.0,32.0,-100.00,SSE,155,6.0,9.0,25,0.00,,,-99.99,,2013-06-04 22:22:00,
2013-06-04 16:32:00,70.0,32.0,-100.00,SSE,155,6.0,9.0,25,0.00,,,-99.99,,2013-06-04 22:32:00,
2013-06-04 16:42:00,70.0,36.0,-100.00,SE,133,10.0,12.0,29,0.00,,,-99.99,,2013-06-04 22:42:00,
2013-06-04 16:52:00,70.0,35.0,-100.00,South,178,7.0,13.0,27,0.00,,,-99.99,,2013-06-04 22:52:00,
2013-06-04 17:02:00,70.0,35.0,-100.00,South,178,7.0,13.0,27,0.00,,,-99.99,,2013-06-04 23:02:00,
2013-06-04 17:12:00,69.0,34.0,-100.00,ESE,114,7.0,9.0,27,0.00,,,-99.99,,2013-06-04 23:12:00,
2013-06-04 17:22:00,69.0,37.0,-100.00,SE,126,6.0,10.0,31,0.00,,,-99.99,,2013-06-04 23:22:00,
2013-06-04 17:32:00,69.0,37.0,-100.00,SE,126,6.0,10.0,31,0.00,,,-99.99,,2013-06-04 23:32:00,
2013-06-04 17:42:00,69.0,37.0,-100.00,SE,126,6.0,10.0,31,0.00,,,-99.99,,2013-06-04 23:42:00,
2013-06-04 17:52:00,69.0,36.0,-100.00,SSE,151,9.0,12.0,30,0.00,,,-99.99,,2013-06-04 23:52:00,
2013-06-04 18:02:00,69.0,36.0,-100.00,SSE,151,9.0,12.0,30,0.00,,,-99.99,,2013-06-05 00:02:00,
2013-06-04 18:12:00,70.0,36.0,-100.00,SE,131,5.0,6.0,29,0.00,,,-99.99,,2013-06-05 00:12:00,
2013-06-04 18:22:00,69.0,36.0,-100.00,SSE,158,10.0,13.0,29,0.00,,,-99.99,,2013-06-05 00:22:00,
2013-06-04 18:32:00,69.0,36.0,-100.00,SSE,158,10.0,13.0,29,0.00,,,-99.99,,2013-06-05 00:32:00,
2013-06-04 18:42:00,69.0,36.0,-100.00,SSE,158,10.0,13.0,29,0.00,,,-99.99,,2013-06-05 00:42:00,
2013-06-04 18:52:00,69.0,36.0,-100.00,SE,140,8.0,10.0,29,0.00,,,-99.99,,2013-06-05 00:52:00,
2013-06-04 19:02:00,69.0,36.0,-100.00,SE,140,8.0,10.0,29,0.00,,,-99.99,,2013-06-05 01:02:00,
2013-06-04 19:12:00,70.0,35.0,-100.00,South,178,7.0,9.0,28,0.00,,,-99.99,,2013-06-05 01:12:00,
2013-06-04 19:22:00,69.0,35.0,-100.00,SE,131,6.0,8.0,28,0.00,,,-99.99,,2013-06-05 01:22:00,
2013-06-04 19:32:00,69.0,35.0,-100.00,SE,131,6.0,8.0,28,0.00,,,-99.99,,2013-06-05 01:32:00,
2013-06-04 19:42:00,69.0,35.0,-100.00,SE,131,6.0,8.0,28,0.00,,,-99.99,,2013-06-05 01:42:00,
2013-06-04 19:52:00,68.0,34.0,-100.00,SE,140,6.0,8.0,28,0.00,,,-99.99,,2013-06-05 01:52:00,
2013-06-04 20:02:00,68.0,34.0,-100.00,SE,140,6.0,8.0,28,0.00,,,-99.99,,2013-06-05 02:02:00,
2013-06-04 20:12:00,68.0,34.0,-100.00,SE,140,6.0,8.0,28,0.00,,,-99.99,,2013-06-05 02:12:00,
2013-06-04 20:22:00,67.0,39.0,-100.00,ESE,116,4.0,5.0,36,0.00,,,-99.99,,2013-06-05 02:22:00,
2013-06-04 20:32:00,67.0,39.0,-100.00,ESE,116,4.0,5.0,36,0.00,,,-99.99,,2013-06-05 02:32:00,
2013-06-04 20:42:00,67.0,37.0,-100.00,ENE,66,7.0,9.0,33,0.00,,,-99.99,,2013-06-05 02:42:00,
2013-06-04 20:52:00,64.0,42.0,-100.00,ENE,66,6.0,7.0,44,0.00,,,-99.99,,2013-06-05 02:52:00,
2013-06-04 21:02:00,64.0,42.0,-100.00,ENE,66,6.0,7.0,44,0.00,,,-99.99,,2013-06-05 03:02:00,
2013-06-04 21:12:00,64.0,42.0,-100.00,ENE,66,6.0,7.0,44,0.00,,,-99.99,,2013-06-05 03:12:00,
2013-06-04 21:22:00,62.0,38.0,-100.00,ENE,62,8.0,9.0,42,0.00,,,-99.99,,2013-06-05 03:22:00,
2013-06-04 21:32:00,62.0,38.0,-100.00,ENE,62,8.0,9.0,42,0.00,,,-99.99,,2013-06-05 03:32:00,
2013-06-04 21:43:00,60.0,37.0,-100.00,ENE,62,5.0,7.0,41,0.00,,,-99.99,,2013-06-05 03:43:00,
2013-06-04 21:53:00,59.0,37.0,-100.00,NE,54,7.0,8.0,44,0.00,,,-99.99,,2013-06-05 03:53:00,
2013-06-04 22:02:00,59.0,37.0,-100.00,NE,54,7.0,8.0,44,0.00,,,-99.99,,2013-06-05 04:02:00,
2013-06-04 22:12:00,58.0,36.0,-100.00,NE,47,7.0,8.0,44,0.00,,,-99.99,,2013-06-05 04:12:00,
2013-06-04 22:22:00,58.0,36.0,-100.00,NE,47,7.0,8.0,44,0.00,,,-99.99,,2013-06-05 04:22:00,
2013-06-04 22:32:00,58.0,36.0,-100.00,NE,47,7.0,8.0,44,0.00,,,-99.99,,2013-06-05 04:32:00,
2013-06-04 22:42:00,57.0,37.0,-100.00,NNE,25,5.0,6.0,47,0.00,,,-99.99,,2013-06-05 04:42:00,
2013-06-04 22:53:00,53.0,35.0,-100.00,NNE,13,6.0,7.0,50,0.00,,,-99.99,,2013-06-05 04:53:00,
2013-06-04 23:02:00,53.0,35.0,-100.00,NNE,13,6.0,7.0,50,0.00,,,-99.99,,2013-06-05 05:02:00,
2013-06-04 23:12:00,53.0,35.0,-100.00,NNE,13,6.0,7.0,50,0.00,,,-99.99,,2013-06-05 05:12:00,
2013-06-04 23:22:00,53.0,38.0,-100.00,North,11,6.0,6.0,57,0.00,,,-99.99,,2013-06-05 05:22:00,
2013-06-04 23:32:00,53.0,38.0,-100.00,North,11,6.0,6.0,57,0.00,,,-99.99,,2013-06-05 05:32:00,
2013-06-04 23:42:00,51.0,38.0,-100.00,North,11,6.0,8.0,60,0.00,,,-99.99,,2013-06-05 05:42:00,
2013-06-04 23:52:00,51.0,37.0,-100.00,NNE,16,6.0,6.0,59,0.00,,,-99.99,,2013-06-05 05:52:00,